Weather History for KTOP - February, 2013

Change the Weather History Date:

Saturday, February 9, 2013

  Actual Average Record
Temperature  
Mean Temperature 43 °F 32 °F  
Max Temperature 54 °F 43 °F 72 °F (1932)
Min Temperature 31 °F 22 °F -17 °F (1979)
Degree Days  
Heating Degree Days 22 32  
Month to date heating degree days 237 300  
Since 1 July heating degree days 2945 3410  
Cooling Degree Days 0 0  
Month to date cooling degree days 0 0  
Year to date cooling degree days 0 0  
Moisture  
Dew Point 32 °F    
Average Humidity 68    
Maximum Humidity 85    
Minimum Humidity 50    
Precipitation  
Precipitation T in 0.05 in 0.66 in (2001)
Month to date precipitation 0.53 0.38  
Year to date precipitation 1.08 1.24  
Snow  
Snow 0.00 in 0.20 in 4.90 in (2001)
Month to date snowfall 0.0 1.7  
Year to date snowfall 1.5 6.6  
Since 1 July snowfall 6.9 13.1  
Snow Depth 0.00 in    
Sea Level Pressure  
Sea Level Pressure 29.97 in    
Wind  
Wind Speed 13 mph (SE)    
Max Wind Speed 23 mph    
Max Gust Speed 29 mph    
Visibility 8 miles    
Events Rain    
T = Trace of Precipitation, MM = Missing Value Source: NWS Daily Summary

Daily Weather History Graph

Daily Weather History Graph

Search for Another Location

Airport or City:

Trip Planner

Search our weather history database for the weather conditions in past years. The results will help you decide how hot, cold, wet, or windy it might be!

Date:

Astronomy

Feb. 09, 2013 Rise Set
Actual Time 7:20 AM CST 5:53 PM CST
Civil Twilight 6:53 AM CST 6:20 PM CST
Nautical Twilight 6:21 AM CST 6:52 PM CST
Astronomical Twilight 5:50 AM CST 7:23 PM CST
Moon 6:33 AM CST (2/9) 5:36 PM CST (2/9)
Length of Visible Light 11h 27m
Length of Day
10h 32m
Waning Crescent, 0% of the Moon is Illuminated
Feb 9
Waning Crescent
Feb 10
New
Feb 17
First Quarter
Feb 25
Full
Mar 4
Last Quarter

Hourly Weather History & Observations

Time (CST) Temp. Windchill Dew Point Humidity Pressure Visibility Wind Dir Wind Speed Gust Speed Precip Events Conditions
12:53 AM 30.9 °F 24.3 °F 27.0 °F 85% 30.22 in 7.0 mi ESE 6.9 mph - N/A   Clear
1:53 AM 30.9 °F 22.8 °F 27.0 °F 85% 30.21 in 6.0 mi ESE 9.2 mph - N/A   Clear
2:53 AM 30.9 °F 23.5 °F 27.0 °F 85% 30.20 in 5.0 mi ESE 8.1 mph - N/A   Clear
3:53 AM 32.0 °F 24.2 °F 28.0 °F 85% 30.17 in 5.0 mi ESE 9.2 mph - N/A   Clear
4:53 AM 32.0 °F 24.8 °F 28.0 °F 85% 30.16 in 6.0 mi SE 8.1 mph - N/A   Clear
5:53 AM 33.1 °F 23.9 °F 28.9 °F 85% 30.15 in 6.0 mi SE 12.7 mph - N/A   Clear
6:53 AM 34.0 °F 25.5 °F 28.9 °F 82% 30.14 in 7.0 mi SE 11.5 mph - N/A   Clear
7:53 AM 34.0 °F 24.6 °F 28.9 °F 82% 30.14 in 6.0 mi SSE 13.8 mph - N/A   Haze
8:53 AM 36.0 °F 28.0 °F 30.0 °F 79% 30.14 in 6.0 mi SSE 11.5 mph - N/A   Haze
9:53 AM 37.9 °F 29.6 °F 30.9 °F 76% 30.12 in 7.0 mi SE 13.8 mph 21.9 mph N/A   Clear
10:53 AM 42.1 °F 35.2 °F 32.0 °F 67% 30.10 in 8.0 mi SSE 12.7 mph - N/A   Clear
11:53 AM 46.0 °F 39.6 °F 33.1 °F 61% 30.06 in 10.0 mi SE 15.0 mph - N/A   Clear
12:53 PM 50.0 °F - 35.1 °F 57% 30.01 in 10.0 mi SE 15.0 mph - N/A   Clear
1:53 PM 52.0 °F - 35.1 °F 53% 29.95 in 10.0 mi SE 15.0 mph - N/A   Scattered Clouds
2:53 PM 53.1 °F - 36.0 °F 52% 29.92 in 10.0 mi SE 16.1 mph - N/A   Clear
3:53 PM 51.1 °F - 33.1 °F 50% 29.89 in 10.0 mi SE 16.1 mph - N/A   Overcast
4:53 PM 48.9 °F - 33.1 °F 54% 29.88 in 10.0 mi SSE 13.8 mph - 0.00 in   Overcast
5:53 PM 46.9 °F - 30.9 °F 54% 29.86 in 10.0 mi SE 12.7 mph - 0.00 in   Overcast
6:53 PM 45.0 °F 38.2 °F 34.0 °F 65% 29.84 in 10.0 mi SE 15.0 mph - 0.00 in Rain Light Rain
7:53 PM 44.1 °F 37.4 °F 34.0 °F 68% 29.83 in 10.0 mi SE 13.8 mph - 0.00 in   Overcast
8:53 PM 44.1 °F 36.2 °F 34.0 °F 68% 29.81 in 10.0 mi SE 18.4 mph - N/A   Overcast
9:07 PM 44.1 °F 37.1 °F 35.1 °F 71% 29.79 in 10.0 mi SSE 15.0 mph 23.0 mph N/A   Overcast
9:33 PM 44.1 °F 36.8 °F 35.1 °F 71% 29.78 in 10.0 mi SSE 16.1 mph 23.0 mph N/A   Overcast
9:53 PM 44.1 °F 36.5 °F 35.1 °F 71% 29.77 in 10.0 mi SE 17.3 mph 26.5 mph N/A   Overcast
10:23 PM 43.0 °F 35.4 °F 36.0 °F 76% 29.75 in 10.0 mi SE 16.1 mph 26.5 mph N/A   Overcast
10:53 PM 43.0 °F 35.7 °F 36.0 °F 76% 29.74 in 10.0 mi SE 15.0 mph - N/A   Overcast
11:53 PM 43.0 °F 35.4 °F 37.9 °F 82% 29.74 in 6.0 mi SSE 16.1 mph - N/A   Haze